{"data":{"norad_id":54005,"intl_designator":"2022-125AT","name":"STARLINK-5135","alt_names":[],"object_type":"PAYLOAD","status":"ACTIVE","operator":null,"country":"US","launch_date":"2022-10-05","launch_site_code":"AFWTR","launch_vehicle":null,"mission":null,"orbit_class":"UNKNOWN","rcs_meters":null,"size_class":null,"mass_kg":null,"dimensions":null,"purposes":["comms"],"wikipedia_slug":null,"has_3d_model":false,"image_url":null,"decayed_at":null,"tle_current":{"epoch":"2026-09-20T00:27:51.639552Z","epoch_age_seconds":127729,"freshness":"FRESH","line1":"1 54005U 22125AT  26263.01934768  .00001960  00000+0  14124-3 0  9993","line2":"2 54005  53.1611  60.8024 0001288 101.9270 258.1866 15.08823331218801","mean_motion":15.08823331,"eccentricity":0.0001288,"inclination_deg":53.1611,"raan_deg":60.8024,"arg_perigee_deg":101.927,"mean_anomaly_deg":258.1866,"bstar":0.00014124,"rev_number":21880,"period_min":95.438609041498,"perigee_km":538.90331034106,"apogee_km":540.68536945422,"semimajor_km":6917.9313398976,"source":"CELESTRAK","updated_at":"2026-09-21T09:00:33.073330Z"}}}